Вернуться в каталог

DELTA 1 DEB

АктивенSSO
NORAD 12175·DEBRIS·🇺🇸 United States

Запущен Mar 5, 1978 с Vandenberg Space Force Base

Loading…

Ближайшие Пролёты (ближайшие 24 часа)

TLE

СвежийSource: Space-Track

Эпоха: Sep 14, 2026, 04:34 UTC

1 12175U 78026Q   26257.19044262  .00000116  00000-0  11235-3 0  9992
2 12175  99.2017 152.0625 0062464 164.8733 356.6321 13.97444263319698

Отслеживайте DELTA 1 DEB в реальном времени с AllMySat

Download on the App Store